Theta_e
309 309 309 309 309 309 309 309 308 308 309 308 308 308 308 308 308 308 308 308 307 307 307 307 307 309 311 314 314 314 314 314 312 313 315 316 314 316 317 317 317 316 315 312 314 318 316 314 314 313 316 318 318 320 318 321 330 331 327 323 323 327 328 332 335 325 320 324 325 322 319 318 320 320 316 313 315 318 316 318 318 315 314 311 311 311 311 312
308 308 308 308 308 308 308 308 308 308 308 308 308 308 308 308 308 308 308 308 308 307 307 307 307 307 309 312 315 314 314 313 314 315 315 316 315 316 317 317 316 314 314 312 315 317 317 317 314 315 320 321 319 318 319 321 323 329 330 324 326 330 329 330 331 324 319 319 321 323 321 317 319 320 316 315 320 318 317 318 317 317 316 312 309 308 310 309
309 309 309 308 308 308 308 308 308 308 308 308 308 308 308 308 308 308 308 308 308 307 307 307 307 307 307 311 314 314 315 316 320 321 319 318 318 316 317 318 317 314 312 312 315 316 317 318 313 316 321 320 321 321 323 322 321 330 329 324 331 332 326 327 325 321 320 318 320 322 318 317 318 317 315 317 320 319 318 317 317 318 319 319 311 306 307 307
310 309 309 309 309 309 309 308 309 308 308 308 308 308 308 308 308 308 308 308 308 308 308 307 307 308 307 310 313 313 316 318 320 322 320 319 319 318 318 318 317 314 312 312 317 317 316 315 313 316 318 319 324 323 325 325 323 327 323 324 333 327 323 325 323 322 321 318 318 320 317 317 318 316 316 318 318 317 317 316 317 319 318 320 313 306 306 306
310 310 310 310 309 309 309 309 309 309 308 309 308 309 308 308 308 308 308 308 308 308 308 307 308 308 307 311 314 315 316 314 315 320 318 317 317 319 319 318 316 313 311 312 317 317 314 313 313 317 318 320 323 321 328 328 323 323 322 324 326 322 320 322 324 323 321 318 318 319 317 317 317 315 317 318 317 316 316 316 316 318 317 318 314 307 305 305
311 311 310 310 310 310 310 310 309 309 309 309 309 309 309 309 309 308 308 308 308 308 308 308 308 307 309 312 314 315 314 310 314 318 317 317 316 318 319 317 314 311 310 313 315 314 315 315 315 320 319 319 321 320 325 324 320 322 323 322 321 319 318 320 322 321 320 317 316 318 316 317 316 316 319 318 316 315 317 319 318 316 314 312 311 307 307 307
312 311 311 311 310 310 310 310 310 310 310 310 310 310 310 310 309 309 309 309 308 308 308 308 308 308 310 312 315 319 319 316 315 315 316 317 316 318 318 315 312 310 310 313 314 314 317 317 316 321 320 319 322 321 320 318 319 322 322 322 321 320 319 319 319 319 319 317 317 316 314 315 317 316 317 316 315 314 315 319 319 314 308 309 311 309 309 308
312 312 311 311 310 310 310 310 310 310 310 310 310 310 310 310 310 311 310 310 309 309 308 308 308 309 310 314 320 325 324 320 315 315 317 317 316 316 316 314 310 310 310 312 313 314 317 318 318 320 320 320 321 320 319 318 319 322 322 322 320 319 320 319 318 318 318 317 316 315 315 315 316 315 315 315 314 314 313 315 317 314 310 312 314 311 309 308
312 312 311 311 310 310 309 309 309 309 309 309 309 309 310 310 310 310 310 311 310 309 309 308 309 309 310 315 319 320 320 318 316 319 319 317 316 315 314 312 310 310 310 312 312 312 315 319 320 318 319 321 319 319 320 319 321 323 322 321 320 319 318 317 316 316 316 317 315 314 316 315 314 315 314 315 314 313 314 314 315 315 315 316 313 311 309 309
311 311 310 310 309 308 308 308 308 308 307 308 308 308 308 308 308 309 309 310 310 310 310 308 309 311 312 313 316 316 315 317 318 319 319 318 316 313 313 312 310 310 309 312 312 312 315 318 318 317 318 319 318 317 319 319 320 320 319 319 318 317 317 315 315 315 314 315 316 315 316 315 314 314 314 315 315 315 315 315 313 313 315 314 312 310 308 309
311 310 310 309 308 308 308 308 308 308 308 308 308 308 308 308 308 307 307 308 309 309 310 310 309 311 313 314 315 315 315 316 317 317 317 317 315 313 313 311 310 310 310 312 312 312 313 314 315 315 316 317 317 317 318 317 316 316 315 317 318 316 316 315 315 315 313 315 317 315 315 315 313 313 314 315 316 316 316 316 315 313 313 312 312 310 309 308
312 311 311 310 309 309 309 310 310 310 310 310 309 309 309 309 308 308 307 307 307 307 309 310 309 310 314 317 317 315 314 315 315 315 316 316 315 314 312 311 311 311 311 311 312 313 313 313 314 316 317 316 315 316 316 315 314 314 314 316 317 316 315 315 315 315 314 315 317 315 315 317 315 314 315 314 314 314 314 316 316 315 313 311 311 310 309 308
314 313 313 312 311 311 311 312 312 312 312 311 311 311 311 311 310 309 308 307 307 307 308 309 310 310 314 319 317 314 313 314 315 315 315 315 314 314 312 311 311 313 313 311 313 315 315 315 314 316 317 315 316 315 313 313 314 315 315 315 316 316 317 316 315 316 314 315 317 315 315 319 319 316 315 314 313 313 314 316 315 314 313 311 311 310 310 308
315 314 313 312 312 312 313 313 314 313 313 313 312 312 312 311 311 311 309 308 307 306 307 309 311 312 315 319 315 313 315 315 315 315 315 315 313 313 313 312 312 314 314 312 312 314 314 315 314 314 314 315 317 314 314 318 318 316 314 316 316 316 318 316 315 316 315 315 315 315 315 318 318 316 316 315 313 313 315 315 314 313 312 311 311 311 310 309
315 314 313 312 313 313 314 314 314 314 313 313 312 312 312 312 312 311 310 309 307 306 309 311 312 314 317 318 314 314 315 314 315 315 315 315 313 313 313 313 313 313 313 312 312 312 312 313 313 315 315 315 313 313 320 323 323 320 314 317 320 317 317 316 314 315 315 314 313 314 317 316 315 316 316 315 314 313 314 315 314 313 312 311 311 311 311 310
315 314 313 313 313 314 314 314 314 314 313 311 311 311 311 311 311 311 311 309 306 307 309 312 314 315 316 316 314 315 315 315 316 316 315 315 313 313 313 313 312 312 312 311 312 312 312 313 312 315 316 314 314 319 323 322 325 325 316 316 321 318 316 316 317 317 315 314 312 313 317 317 316 316 316 315 314 313 314 314 312 312 312 311 311 310 311 311
314 314 314 314 314 314 314 314 314 313 311 310 310 310 310 310 311 311 310 309 308 308 311 314 315 314 314 313 314 315 314 314 316 316 315 314 313 314 313 312 311 311 311 311 311 311 311 312 311 314 317 315 317 322 321 318 321 321 317 317 320 318 314 315 318 318 315 315 314 314 314 315 316 317 318 317 315 313 314 314 313 311 311 311 311 310 310 310
314 315 314 314 314 314 314 314 314 313 311 310 309 310 310 310 312 311 311 311 311 310 312 316 314 312 314 315 314 316 315 314 315 315 314 314 313 313 313 311 309 310 311 311 312 312 312 314 316 318 319 316 316 318 318 318 317 316 317 317 318 317 315 314 315 315 314 314 315 315 313 313 314 314 315 315 314 313 313 314 313 312 311 311 311 311 311 310
315 315 314 314 314 314 314 314 314 313 312 310 309 311 312 314 314 312 312 315 316 313 313 316 314 313 315 317 315 315 316 315 315 314 313 313 313 313 313 311 311 312 313 313 314 313 314 318 320 319 317 315 314 315 315 316 314 314 315 314 315 315 313 313 313 314 315 314 315 315 313 313 313 312 313 313 312 312 312 312 311 311 312 311 311 311 311 311
315 315 314 315 315 315 315 315 315 314 313 312 310 312 317 319 319 315 314 317 318 316 316 316 315 315 315 316 317 315 316 316 316 315 313 312 313 313 312 311 313 314 314 319 319 314 314 318 319 317 316 314 314 314 314 314 313 313 313 313 314 313 312 312 312 313 314 313 314 315 314 313 313 313 313 312 312 313 312 312 312 311 311 311 311 312 312 311
315 315 315 315 315 315 315 315 316 314 313 313 311 313 317 316 315 314 314 315 313 310 313 315 312 314 314 313 315 316 317 317 315 315 313 312 313 314 314 312 314 315 316 322 320 313 313 317 318 316 314 313 313 314 313 313 313 313 314 314 313 313 313 312 312 313 313 313 313 314 314 313 313 313 312 313 313 312 312 312 312 312 312 311 311 311 312 312
316 315 315 315 315 316 316 316 316 314 314 314 311 311 311 308 310 310 309 314 314 308 309 312 310 312 312 311 313 314 316 316 315 316 314 311 312 314 315 313 315 317 317 317 316 314 315 316 315 313 313 313 313 313 313 313 313 314 314 314 314 313 313 312 313 314 312 313 316 316 315 313 312 313 312 312 313 313 313 312 313 313 313 312 311 311 311 312
317 316 316 316 316 316 316 317 316 315 315 314 311 310 308 307 308 308 308 313 317 312 311 311 310 311 312 311 312 312 314 314 314 317 314 311 311 313 314 313 315 316 316 316 315 317 318 316 314 312 312 313 313 313 314 314 313 314 315 314 315 314 314 314 315 318 314 313 317 317 313 312 312 312 312 311 312 312 312 312 312 312 313 313 313 313 312 312
317 317 317 316 317 317 317 317 317 316 315 314 311 310 309 307 306 308 312 315 315 314 313 310 308 311 312 311 310 312 314 313 313 315 313 311 312 312 313 314 314 314 315 315 314 315 315 315 314 313 313 313 314 314 314 314 313 315 316 315 314 314 314 313 314 316 314 313 316 315 312 313 313 312 312 312 311 311 311 311 312 312 312 313 313 313 313 313
318 318 318 317 318 318 318 318 317 316 316 313 311 310 309 307 305 307 312 315 316 317 314 309 308 310 311 310 311 313 312 312 314 314 311 310 311 312 312 312 313 314 313 312 313 313 312 313 314 316 317 316 315 314 316 317 314 314 317 316 314 314 314 314 315 315 315 318 318 316 316 316 317 316 313 313 313 312 312 312 312 312 312 312 313 313 313 313
321 320 319 318 319 319 319 319 318 317 316 313 312 312 308 307 307 307 311 314 318 320 316 311 311 312 310 310 311 313 312 312 312 312 311 310 311 312 312 312 312 313 313 313 312 313 313 313 313 316 320 319 317 316 317 317 314 315 322 322 316 314 315 316 317 316 319 322 318 316 319 318 318 319 316 315 315 314 314 314 313 313 312 312 313 312 313 313
322 321 321 320 319 319 320 321 319 318 318 316 313 310 308 308 307 306 311 316 319 320 317 313 312 311 311 310 310 312 315 314 311 310 310 310 310 311 312 312 312 311 312 314 313 315 315 313 314 316 317 320 319 317 316 316 316 318 324 328 322 318 319 319 318 319 321 321 316 317 321 320 318 318 319 318 317 316 316 316 314 313 312 312 312 312 312 313
324 324 323 322 321 320 320 320 319 318 319 317 312 309 308 308 307 308 313 319 321 319 317 314 311 311 312 310 310 311 312 311 312 311 308 308 310 311 312 312 312 313 314 314 313 315 316 315 316 316 316 319 317 315 317 317 317 319 321 324 324 322 322 320 319 322 322 319 317 319 319 320 318 317 319 316 316 318 316 316 316 314 314 313 313 312 312 312
325 325 324 323 321 320 320 320 319 318 319 316 310 309 308 306 306 311 316 319 319 316 315 314 311 312 313 311 311 313 311 310 311 311 308 309 310 310 311 311 311 312 313 314 313 313 315 315 316 316 316 315 314 317 322 319 318 319 320 323 325 326 327 323 320 320 322 320 320 321 320 319 318 318 319 315 315 318 315 314 314 314 316 315 314 313 312 312
325 324 325 323 320 319 319 319 320 321 320 315 310 309 308 308 308 314 323 321 316 315 313 312 312 313 313 313 314 314 311 311 311 310 311 311 311 311 311 310 312 316 317 315 315 313 313 312 313 316 316 315 316 318 317 318 318 316 320 325 326 328 329 330 328 322 320 320 322 324 322 318 318 319 320 317 318 319 315 314 314 314 315 315 315 314 313 313
324 324 324 322 320 320 319 319 321 322 319 313 310 309 309 313 314 320 328 322 316 318 313 313 314 313 314 315 317 315 312 312 311 312 313 311 312 313 312 310 313 321 321 316 315 314 312 311 315 320 321 320 318 315 314 317 318 317 323 325 324 327 327 329 329 323 320 321 323 323 321 318 318 318 318 318 319 318 315 316 317 317 317 316 316 315 313 314
323 323 323 321 321 320 320 320 320 321 319 313 311 311 313 319 321 323 326 321 322 323 316 317 316 314 316 314 316 318 314 313 312 312 315 315 315 315 314 315 316 318 322 319 317 318 316 313 315 317 318 319 318 317 318 319 317 318 324 322 320 324 323 323 327 324 321 322 321 319 317 316 316 316 317 317 317 317 316 316 318 321 321 319 318 317 314 315
322 322 321 321 321 320 320 321 320 320 318 313 314 317 319 325 329 326 323 325 328 322 316 320 317 316 317 315 320 323 315 315 315 311 314 315 314 316 315 318 318 315 318 320 319 321 321 317 313 312 314 317 318 318 318 319 318 317 320 321 320 322 320 322 328 325 321 321 320 316 315 316 317 319 319 315 313 316 315 315 317 318 319 319 319 318 316 316
321 321 321 321 320 320 320 320 319 319 317 315 319 322 322 327 331 326 322 325 326 320 316 319 317 317 317 316 324 324 314 318 318 311 313 313 313 318 318 315 314 314 316 316 317 321 320 318 316 315 318 319 316 314 317 322 320 315 318 322 320 323 327 325 327 325 320 323 322 315 316 321 319 318 320 318 317 318 317 315 315 314 314 315 315 315 315 315
319 319 320 320 319 320 320 319 319 317 317 317 319 322 323 327 329 326 326 326 324 321 318 317 317 319 319 320 326 324 315 318 318 313 315 315 315 322 323 316 312 313 315 315 318 320 317 319 320 316 317 318 315 314 316 320 320 315 320 323 317 322 327 320 322 323 318 322 322 316 319 324 318 314 317 319 319 318 317 315 315 316 316 315 314 314 315 314
316 318 319 319 318 319 319 319 318 316 316 318 319 321 322 326 328 327 326 322 318 319 319 319 320 321 323 324 327 324 316 315 317 315 316 316 318 321 322 318 313 311 313 315 319 320 316 321 322 314 314 316 314 314 315 317 319 316 318 319 315 319 322 317 322 324 317 318 319 317 320 320 317 316 316 318 316 315 319 318 316 317 315 313 313 312 313 313
314 316 317 318 318 320 319 318 318 315 315 318 321 322 321 323 326 326 324 317 315 319 321 321 321 322 325 325 326 324 319 317 317 316 318 319 318 318 319 320 315 310 311 314 319 321 317 318 321 317 315 315 311 313 315 316 315 316 319 317 315 319 321 320 324 324 319 319 319 318 319 317 318 319 317 318 318 317 322 320 315 315 315 314 313 311 312 311
314 316 317 317 317 318 319 318 316 314 315 317 320 322 322 322 322 322 321 318 318 322 323 323 323 323 324 324 325 324 320 321 320 318 321 321 318 319 320 319 316 312 310 311 315 320 318 315 319 320 317 315 312 313 316 314 311 314 318 317 317 320 321 320 321 321 319 319 320 319 318 316 317 317 316 319 320 318 319 318 314 315 315 315 315 314 313 312
313 315 317 316 315 317 319 318 315 314 317 319 320 321 322 322 320 320 320 319 318 320 321 323 324 323 323 322 323 324 321 322 323 321 322 323 322 320 318 316 317 314 311 311 313 316 317 316 318 319 316 314 313 314 318 318 314 312 313 315 316 317 319 320 321 321 320 319 320 320 319 318 318 320 319 319 321 318 315 315 315 315 314 315 316 315 315 314
311 314 316 316 316 318 318 315 314 316 319 321 321 321 321 321 320 320 320 318 318 319 319 322 323 323 322 322 322 324 324 323 322 322 323 325 324 321 318 317 317 317 315 313 312 314 316 317 316 317 316 314 314 317 320 321 318 315 314 315 315 314 318 319 317 319 319 317 319 320 320 319 318 321 319 317 318 314 311 313 315 315 314 314 315 316 317 317
312 314 316 317 317 317 315 314 314 316 319 320 320 320 319 319 320 319 318 317 318 319 317 319 322 322 320 321 321 321 322 323 322 322 323 324 323 321 319 317 317 319 320 317 314 316 319 319 317 318 318 315 316 319 320 319 318 316 315 315 314 314 318 318 317 318 317 317 318 318 319 320 318 317 315 314 315 313 313 315 314 314 314 314 315 317 318 317
311 314 315 316 317 315 314 315 316 316 318 319 319 319 318 317 318 318 317 317 318 317 316 316 319 319 318 318 319 318 320 323 321 321 321 321 320 320 318 317 318 321 322 320 319 320 321 320 318 318 319 318 318 318 317 318 317 315 314 316 316 315 315 317 318 318 318 317 317 318 318 318 317 317 314 314 314 313 314 314 313 313 313 313 315 316 317 316
311 314 314 315 315 314 315 317 317 316 317 317 317 318 317 317 318 318 317 317 316 316 316 316 316 317 317 317 318 317 318 321 320 319 320 320 318 317 317 318 320 322 323 321 320 319 318 318 319 319 320 320 319 318 317 316 313 312 313 314 315 315 314 315 317 317 318 318 317 319 319 318 320 324 318 314 314 313 313 313 312 312 311 311 312 312 313 313
309 311 313 314 314 313 316 319 318 317 317 316 316 317 316 316 317 317 317 317 317 317 317 316 315 316 317 317 317 317 318 320 320 319 320 320 319 318 318 318 318 319 322 321 322 322 318 319 322 320 320 321 320 320 319 316 313 313 315 314 313 314 314 315 315 316 317 317 317 319 318 317 321 323 317 314 314 313 312 312 312 312 311 311 311 311 311 311
307 309 311 312 312 312 316 318 317 317 317 316 316 316 316 316 316 316 317 316 316 317 317 318 317 316 316 316 316 316 317 318 319 320 321 321 321 319 318 318 316 316 318 320 323 323 319 321 322 321 321 322 321 321 322 321 318 315 316 316 314 315 315 314 315 316 316 316 317 318 318 317 316 316 314 313 313 312 313 313 313 313 313 312 311 311 310 310
305 307 309 311 312 311 314 315 315 316 317 316 316 316 316 317 316 316 316 315 315 316 315 317 317 316 315 316 316 316 316 316 317 319 320 320 320 320 319 320 318 316 317 319 319 318 317 319 321 320 320 321 320 319 320 322 320 317 317 316 314 315 315 314 315 316 316 317 317 317 317 316 316 316 315 314 313 313 313 313 313 313 313 313 312 312 311 310
303 305 307 311 313 312 313 313 313 315 315 315 316 316 315 316 316 315 316 315 315 315 315 315 315 315 316 316 316 317 316 316 316 316 318 318 317 318 317 317 316 316 317 317 316 315 315 316 318 318 319 319 319 318 318 318 318 317 317 317 315 316 315 315 316 315 316 317 317 317 317 317 317 317 315 314 314 314 313 313 313 313 313 313 313 313 312 310
302 303 304 306 308 310 312 311 311 312 312 312 313 314 315 315 315 315 315 315 315 315 315 315 314 315 315 314 315 316 316 316 316 315 315 312 309 310 312 313 314 315 314 313 313 314 314 315 316 317 317 317 317 317 317 318 317 317 317 317 316 317 316 316 315 314 315 317 316 317 317 317 316 315 314 314 313 313 313 312 312 312 312 313 312 312 312 311
300 301 302 302 303 305 306 305 304 306 308 309 310 312 313 314 314 314 313 313 314 314 314 315 313 311 309 309 309 311 312 313 312 311 309 305 303 306 309 311 312 312 310 310 311 312 314 314 315 315 315 316 316 316 316 316 316 316 317 316 316 316 316 316 315 315 315 316 315 316 317 316 315 313 313 313 312 313 312 312 312 312 312 312 312 312 311 311
298 300 301 301 300 301 301 301 302 304 305 307 309 310 311 312 312 312 311 311 312 312 312 311 308 305 305 306 306 307 307 306 305 305 304 302 302 304 305 307 309 307 305 307 309 311 312 314 314 315 315 315 315 315 315 315 315 315 315 315 315 315 315 316 315 315 316 316 316 316 316 315 314 313 313 312 312 312 312 312 312 311 312 312 311 309 307 306
297 298 299 299 299 300 300 301 302 303 304 306 308 308 309 310 308 307 307 309 310 310 308 306 304 303 304 304 305 306 304 302 301 302 303 302 302 302 303 303 305 305 304 306 308 309 311 312 313 314 315 315 315 315 314 314 314 314 314 314 314 315 315 314 315 315 315 316 316 316 317 316 314 313 313 312 312 312 312 312 312 311 310 308 305 304 302 301
296 297 298 298 298 298 299 300 301 301 302 303 304 305 305 306 304 303 305 307 307 307 304 301 301 302 303 303 304 303 301 300 300 301 302 302 301 302 302 302 303 304 305 306 307 308 309 311 311 312 314 315 315 316 315 314 315 315 315 314 314 314 314 314 314 314 314 315 316 316 316 313 310 309 309 308 309 310 310 310 309 306 303 301 301 300 300 299
Wind_Speed
10 10 11 11 11 11 11 11 11 11 11 11 11 11 11 11 11 11 11 11 11 11 11 11 12 11 10 10 10 9 9 10 12 11 12 14 12 9 7 6 6 7 8 6 7 8 5 3 5 5 2 1 0 1 1 1 2 3 3 2 3 3 4 5 6 5 3 4 5 4 4 7 5 4 1 1 1 2 3 4 4 3 2 2 1 2 15 30
11 10 11 11 12 12 12 12 12 12 11 11 11 11 11 11 11 11 11 11 11 11 11 11 12 11 11 11 10 8 8 9 10 13 16 17 15 13 10 8 8 8 9 9 10 10 6 3 5 5 3 1 1 1 1 1 2 2 3 2 4 6 5 5 6 4 2 3 5 5 4 6 6 3 1 2 6 3 4 6 4 5 5 2 4 12 23 32
12 12 12 12 12 12 13 13 12 12 12 12 12 11 11 11 11 11 11 11 12 12 12 12 12 12 11 10 10 8 7 6 6 9 10 8 10 16 14 11 10 8 9 9 9 10 7 4 7 7 3 1 2 1 1 1 2 3 3 2 7 7 6 5 6 6 6 4 4 6 3 4 6 3 2 4 7 6 7 8 4 8 11 5 4 12 22 28
13 13 13 13 13 13 13 14 13 13 13 12 12 12 12 11 11 11 11 11 12 12 12 12 13 13 10 9 8 7 5 4 3 4 4 6 3 8 14 14 11 10 9 8 8 9 7 5 7 6 3 1 3 1 2 3 3 2 4 5 7 5 4 8 8 8 7 4 4 4 1 3 6 3 3 3 4 9 9 10 10 12 14 9 7 10 19 22
13 14 14 14 14 14 15 15 15 14 14 14 13 13 12 12 11 11 11 11 11 11 12 12 13 13 10 7 6 5 5 4 2 2 4 6 6 2 11 13 12 11 9 10 9 8 7 5 5 3 2 2 2 2 3 6 4 2 5 8 7 4 4 9 7 6 5 3 3 4 3 5 3 2 5 7 7 12 7 8 12 14 12 11 12 13 15 16
13 13 14 14 15 15 15 15 16 16 16 16 15 14 13 13 12 12 11 10 11 11 11 11 12 13 9 6 4 3 2 1 4 4 6 7 5 2 8 12 13 11 10 11 9 7 6 4 4 2 2 2 3 4 5 4 4 3 6 6 7 6 6 8 4 4 4 2 6 5 4 2 2 5 5 9 14 16 8 7 11 13 13 13 15 14 14 15
12 13 13 13 13 14 14 15 15 16 16 16 16 16 15 14 13 13 12 11 11 10 11 11 12 11 7 4 3 3 3 5 9 8 11 8 4 4 8 12 12 11 11 12 9 6 4 4 3 4 3 1 4 6 5 2 4 6 6 5 7 8 9 10 7 5 3 6 8 3 4 3 6 7 3 8 17 18 11 6 8 10 9 11 13 14 16 17
12 13 13 13 13 13 13 14 14 15 16 16 16 16 16 15 15 14 13 12 11 11 10 10 11 9 5 2 1 3 1 8 12 10 10 7 5 5 8 11 12 12 12 13 12 7 5 5 5 4 2 4 4 4 4 1 2 6 8 5 4 5 8 9 7 7 6 7 6 3 8 9 10 4 6 16 22 16 10 7 8 6 5 10 12 16 16 16
13 13 13 13 13 13 13 13 14 14 14 15 15 15 15 15 15 15 15 14 12 11 11 9 9 7 4 1 4 2 4 7 9 9 8 6 7 7 10 11 13 14 12 12 12 8 6 5 6 5 4 4 4 4 3 1 4 7 8 5 5 6 8 7 7 8 6 5 3 3 13 12 6 2 9 23 22 12 8 10 9 7 6 9 12 14 16 16
13 13 14 13 13 13 13 13 14 14 14 14 14 14 14 14 14 14 14 15 13 11 11 9 7 5 3 2 4 2 7 6 6 8 7 8 10 10 12 13 13 15 12 9 10 11 7 7 5 4 4 2 3 4 2 4 4 4 5 6 7 8 9 6 7 9 4 4 6 7 15 13 3 2 10 20 12 3 7 10 9 8 10 11 11 12 14 15
13 14 13 13 13 13 13 13 14 14 13 13 13 13 13 13 13 13 13 15 14 11 11 9 7 5 4 4 4 5 7 6 8 9 8 10 12 13 14 15 15 16 14 8 10 13 10 8 5 4 1 2 2 3 3 5 2 2 1 6 10 7 9 9 9 8 2 4 8 10 12 12 2 4 14 21 7 5 5 8 8 8 11 11 11 11 10 12
13 14 14 14 13 12 13 13 14 14 14 14 14 13 13 13 12 13 13 14 14 12 11 9 7 6 4 2 6 12 12 12 13 12 11 12 14 15 14 15 16 15 14 9 7 9 8 7 5 4 4 1 1 2 3 3 0 2 2 5 12 7 10 16 10 7 4 3 6 9 5 9 5 11 19 22 9 1 5 8 9 9 10 10 10 10 9 12
13 14 14 14 14 13 13 14 15 15 15 15 15 14 13 13 13 13 13 14 14 12 11 8 7 7 4 2 7 13 17 18 17 16 16 15 15 15 14 15 15 13 13 9 4 1 2 5 7 6 3 2 3 2 1 1 2 3 2 1 9 7 10 14 3 2 5 4 6 8 3 9 11 16 19 17 9 4 7 11 11 10 9 9 9 8 9 12
13 14 14 15 14 14 14 15 16 17 18 18 17 15 14 14 13 14 14 15 14 11 10 7 6 6 4 5 7 8 14 16 17 19 19 18 16 14 14 15 13 12 11 8 5 2 1 2 5 2 1 3 3 4 3 5 3 3 2 1 3 2 9 10 2 5 3 4 8 8 4 9 14 19 15 11 8 6 9 13 12 11 10 9 8 9 11 11
14 14 15 15 15 14 14 16 18 19 21 22 20 18 16 14 14 15 15 15 12 8 7 6 8 7 1 7 8 8 12 12 17 24 22 19 17 11 11 14 12 9 8 6 4 3 2 3 3 2 3 2 1 3 3 4 3 1 2 4 2 3 7 13 6 7 7 5 5 7 4 8 15 20 15 7 6 8 10 14 12 11 10 9 9 9 11 11
13 14 14 14 14 14 15 16 18 21 23 23 23 21 18 16 15 15 15 14 10 7 6 6 10 7 0 5 3 5 9 12 16 20 19 20 18 10 7 10 8 5 5 4 3 3 4 3 1 2 2 4 2 2 3 4 5 2 3 5 5 5 4 8 9 6 10 4 3 7 6 6 11 16 13 6 5 8 9 13 12 11 11 11 9 9 10 10
12 13 13 13 14 14 15 17 19 21 23 23 23 22 18 16 15 14 11 6 3 7 8 5 8 6 2 3 2 5 9 14 16 13 15 19 17 12 7 5 5 6 6 3 4 4 2 2 1 0 1 2 2 5 3 3 6 4 2 4 5 6 4 4 9 6 5 6 6 10 9 11 14 13 12 7 5 7 8 12 12 10 10 10 9 9 10 10
11 12 12 13 13 14 16 17 20 21 22 23 22 21 16 10 7 5 4 8 9 8 5 2 5 3 4 5 5 6 5 10 12 10 14 16 15 12 7 5 6 8 6 3 2 2 1 1 2 1 3 3 2 5 3 7 9 6 5 4 4 6 6 7 10 5 1 4 7 8 10 15 18 15 14 13 8 6 9 12 10 9 10 10 9 10 11 11
10 11 12 13 13 15 16 18 21 21 22 24 22 15 7 3 4 5 8 10 8 5 2 3 6 3 4 7 7 5 3 6 8 8 12 14 12 11 7 5 7 7 5 1 2 2 2 3 4 1 5 8 6 7 11 14 12 9 7 5 6 7 7 9 14 8 3 6 8 10 13 15 17 17 17 17 13 12 14 12 9 9 10 11 10 11 11 12
10 11 12 13 14 15 16 18 21 19 21 26 21 10 2 4 4 3 2 1 5 4 1 5 9 4 4 3 3 5 5 6 6 6 12 14 12 11 5 3 6 3 3 5 4 2 4 4 3 7 11 12 9 12 16 15 10 7 5 6 8 9 9 11 15 12 5 5 9 12 17 17 16 18 17 15 13 13 16 15 14 12 11 13 13 14 14 14
10 11 12 14 15 16 17 19 20 17 19 22 16 7 2 1 1 2 4 5 10 11 7 8 11 9 8 6 5 7 4 4 4 4 12 15 14 11 3 3 5 2 4 6 2 0 3 6 9 15 16 12 8 11 13 10 8 8 6 8 9 8 13 13 13 15 5 5 8 11 16 18 16 16 16 13 12 15 16 16 18 16 13 13 14 17 18 14
10 10 12 13 15 16 16 20 18 14 18 18 12 7 3 0 1 1 0 3 10 10 9 11 10 10 14 17 16 8 1 5 5 3 12 13 10 8 3 5 6 4 4 4 1 1 3 6 15 19 12 6 5 6 7 8 8 7 5 7 7 7 12 11 10 14 5 4 7 10 13 16 14 15 14 13 15 17 17 16 19 17 13 14 15 16 17 15
10 10 11 11 14 15 15 19 15 12 18 14 9 6 2 2 1 2 2 1 7 6 6 9 8 7 12 21 19 10 6 9 7 6 15 15 5 5 5 7 7 3 5 7 7 6 5 8 17 15 6 5 8 6 5 6 5 6 6 6 8 8 9 8 7 9 4 3 6 9 12 12 11 12 11 15 18 17 16 17 17 16 14 16 17 15 16 17
11 11 11 11 13 13 14 18 11 11 18 8 5 6 4 3 1 3 1 1 5 6 7 9 7 6 11 12 9 11 8 7 5 5 15 17 5 3 5 7 5 4 7 13 13 11 10 9 9 7 7 9 11 8 6 7 6 8 8 8 11 12 11 10 7 7 5 4 5 7 12 10 9 13 12 12 16 16 16 16 16 16 15 16 17 16 16 17
12 12 12 12 12 12 15 14 7 12 15 2 1 8 6 3 2 3 0 1 3 6 6 6 5 6 10 6 6 10 4 4 6 5 14 17 9 4 3 4 4 7 12 13 10 9 12 9 5 7 8 10 10 8 8 9 9 6 7 13 18 15 12 13 10 8 5 5 4 3 9 9 8 12 13 10 11 13 12 14 16 17 16 14 15 18 17 17
14 13 12 12 11 12 13 7 5 13 11 2 3 9 6 3 1 4 1 2 3 5 2 2 3 3 6 4 6 7 2 4 5 4 12 15 11 6 2 3 2 6 10 7 4 4 8 9 8 9 9 9 8 7 9 11 8 7 6 13 16 12 9 11 9 5 2 4 3 3 1 10 6 7 11 10 10 13 11 11 15 16 14 12 13 16 16 16
14 13 13 13 12 10 8 4 8 11 4 2 8 8 6 4 1 3 0 3 4 4 2 1 0 1 2 2 4 7 2 5 1 4 4 5 5 2 2 5 3 3 4 2 3 3 6 8 8 10 8 7 7 9 11 11 7 7 5 8 9 8 8 7 5 5 4 3 4 2 5 8 14 6 11 13 11 11 12 13 15 15 14 12 12 14 16 17
15 15 14 14 13 11 9 8 9 6 2 5 8 6 5 3 2 1 2 2 5 1 2 2 1 1 1 2 1 4 2 2 3 1 3 3 1 1 3 7 5 4 3 4 6 5 4 6 9 10 7 6 9 11 9 12 7 7 3 6 6 5 5 4 4 3 2 4 4 4 5 3 15 6 7 9 9 9 13 16 17 16 14 13 13 14 16 17
16 16 15 15 13 12 12 12 9 5 5 7 7 5 3 1 1 3 3 3 4 0 1 0 1 2 2 1 2 0 2 3 2 2 4 2 0 2 3 6 4 4 4 5 9 6 1 4 7 10 7 8 10 7 7 12 8 4 6 6 5 3 3 4 2 1 2 5 5 6 5 3 13 7 5 3 5 8 12 13 14 14 12 12 12 13 13 13
18 16 16 15 12 12 12 12 11 7 5 6 6 5 2 1 1 2 3 4 1 1 1 1 1 0 3 3 2 3 1 2 1 2 3 1 2 4 1 2 3 2 4 3 7 7 3 1 2 5 5 6 5 2 3 7 5 3 6 5 6 5 5 4 2 4 2 8 7 10 11 7 8 6 4 4 5 7 9 8 9 11 12 13 13 12 12 13
19 16 17 17 17 15 8 6 9 8 5 4 5 4 2 1 2 3 7 2 1 2 1 0 1 2 4 4 2 3 1 2 1 2 0 1 2 4 1 1 2 2 3 5 7 7 4 1 2 4 3 4 5 4 1 2 4 5 4 4 3 4 4 4 4 4 1 9 6 11 12 10 10 7 2 5 6 5 7 7 9 12 13 13 12 11 12 13
20 17 17 20 21 19 12 7 5 6 8 3 3 2 0 1 2 5 5 2 1 3 2 2 2 2 3 3 1 3 2 1 1 4 3 3 2 2 3 4 3 0 4 4 4 5 4 6 6 2 1 5 5 3 3 6 3 5 4 4 1 4 3 2 4 1 4 8 5 7 7 7 12 8 4 10 11 8 9 9 11 12 12 13 12 12 11 10
18 17 17 21 22 22 21 15 8 8 9 4 3 2 2 3 6 4 3 2 3 2 2 2 1 3 4 3 3 4 2 2 3 3 2 3 3 3 5 5 6 3 4 4 2 4 4 6 4 3 3 4 8 6 3 2 4 6 6 6 5 3 2 3 4 3 6 7 4 4 5 5 9 6 9 15 14 10 8 9 11 12 12 13 11 10 10 9
13 14 17 20 22 23 23 20 15 13 10 7 5 2 1 5 5 1 2 5 3 2 1 2 3 2 3 2 4 3 2 4 4 5 2 3 2 3 4 6 7 4 2 2 2 1 4 9 4 8 4 6 11 12 10 5 4 7 6 6 6 6 4 4 5 6 8 6 3 2 4 5 5 2 7 10 7 6 5 6 7 8 9 10 10 10 11 11
10 11 14 18 20 22 22 21 18 15 11 6 4 2 4 6 3 1 3 4 2 3 3 1 3 2 2 3 4 3 5 5 2 5 4 4 4 4 4 6 9 7 3 3 3 3 5 10 7 6 2 9 13 13 9 7 1 4 4 4 5 6 6 5 7 7 4 3 4 3 4 6 5 5 8 8 8 8 7 7 7 9 11 10 10 12 12 12
9 9 11 15 19 21 22 22 19 16 11 5 3 4 6 6 3 3 3 2 1 1 3 5 1 2 3 2 3 4 3 2 1 2 3 3 3 5 4 4 9 12 9 6 3 3 5 7 3 2 1 5 7 5 5 5 3 2 3 4 5 4 6 6 7 3 0 4 7 6 7 6 5 10 8 3 6 8 7 8 9 10 10 9 10 11 11 11
8 8 8 12 18 19 20 22 21 17 9 4 4 6 6 4 4 4 2 1 1 2 3 2 2 2 3 2 3 3 1 1 1 2 2 3 3 4 5 4 6 13 15 9 4 4 7 7 4 5 5 3 2 2 2 1 3 5 4 6 2 3 2 3 2 2 2 8 7 8 16 11 5 8 4 5 5 7 7 7 5 6 8 8 9 10 11 11
7 7 9 15 20 19 18 22 23 16 6 2 8 9 5 4 4 4 2 0 1 2 3 2 3 1 2 3 3 1 1 2 2 2 2 3 3 4 5 3 3 10 15 12 5 3 5 7 6 2 2 2 4 3 3 5 1 4 4 3 3 1 3 2 3 3 6 10 6 8 16 13 8 9 5 5 8 8 7 6 5 6 7 6 8 9 12 12
6 4 6 12 18 20 21 25 22 11 3 4 9 9 4 4 4 4 4 2 1 1 1 5 4 2 3 4 3 2 2 3 1 2 2 3 4 2 3 2 2 4 8 7 4 4 1 4 5 1 1 1 2 1 4 4 2 1 2 3 1 3 4 3 3 3 5 10 8 8 11 9 8 7 5 7 8 6 5 5 6 7 8 8 8 8 9 10
4 3 3 4 11 20 25 23 14 5 4 6 8 8 4 3 4 5 6 6 4 2 4 5 5 5 5 5 6 4 3 5 5 4 4 4 4 3 1 1 1 2 3 3 4 3 2 3 6 2 2 1 1 3 6 5 3 2 3 4 3 2 1 2 2 1 3 8 8 8 9 8 6 4 6 7 7 7 3 5 8 9 11 12 11 9 9 10
3 3 3 3 11 22 24 14 4 3 4 5 8 8 5 4 4 4 6 7 5 3 3 4 6 7 7 7 7 5 3 4 6 6 5 5 5 4 3 3 4 1 2 2 3 2 1 4 5 2 3 5 5 5 6 6 5 5 5 6 7 7 5 5 7 4 3 5 7 8 9 6 4 5 7 6 6 8 7 7 9 10 11 12 10 9 10 9
4 4 2 4 16 26 18 4 3 4 4 4 5 5 4 4 4 5 5 5 5 4 1 3 6 7 7 8 7 6 5 4 6 7 5 8 10 9 6 6 6 4 3 2 3 3 2 2 2 4 6 8 10 7 5 6 5 4 4 4 6 6 6 7 10 7 4 4 5 7 10 5 2 9 16 14 13 14 10 8 11 11 10 10 9 10 10 10
4 4 1 7 23 26 10 3 5 4 4 3 2 3 3 3 4 4 5 5 5 4 2 4 7 8 8 8 8 8 7 5 8 10 8 8 11 12 12 9 6 6 3 2 4 2 2 3 3 6 5 6 10 11 7 4 4 3 5 5 6 6 7 9 7 4 5 6 5 8 10 6 3 8 13 16 18 18 13 11 13 12 10 10 11 11 12 11
2 3 1 9 26 22 6 5 7 6 6 4 4 5 3 2 5 7 6 5 5 5 5 6 6 8 8 8 9 10 9 7 9 11 10 8 8 12 15 13 9 6 4 4 5 3 3 2 3 5 4 4 5 6 6 4 4 4 4 6 8 9 10 9 4 2 5 9 11 12 11 7 6 7 10 16 21 23 22 19 15 13 13 12 11 11 12 11
2 3 2 7 19 14 4 6 7 6 7 8 9 9 7 5 6 9 10 7 5 5 4 4 4 5 7 8 9 10 10 9 8 8 8 7 4 6 12 15 14 11 9 10 8 4 4 5 4 5 7 7 7 6 6 4 5 5 4 7 12 14 14 12 7 7 9 11 14 14 11 10 10 10 12 17 21 24 26 26 22 16 12 12 12 11 10 9
2 3 2 3 8 7 4 4 5 5 7 8 8 8 12 11 7 6 7 7 7 7 5 5 4 4 4 7 9 10 10 11 9 6 5 6 4 3 7 12 14 14 16 15 9 4 1 5 9 12 14 12 13 14 10 7 8 8 9 13 15 16 17 14 10 11 12 12 14 14 13 15 14 13 16 19 21 22 24 28 27 20 13 13 12 9 9 10
2 3 2 2 3 5 7 5 5 5 6 7 5 5 11 13 8 4 6 6 7 8 6 6 7 9 8 9 11 11 11 12 12 11 11 9 6 5 6 6 7 11 13 11 7 5 1 6 12 18 20 18 19 20 18 15 14 15 15 17 17 17 18 16 16 17 15 14 15 13 15 19 17 15 19 21 22 22 23 25 24 21 18 16 13 11 11 10
3 2 2 3 2 4 5 5 4 3 4 5 3 4 9 12 10 6 4 3 4 6 5 5 9 13 12 9 8 8 9 11 12 11 9 5 5 7 7 5 5 6 5 3 4 4 3 8 12 16 20 20 19 20 19 18 18 17 17 18 19 20 20 20 22 22 17 17 18 14 17 21 17 14 18 21 22 22 22 22 21 20 21 20 18 18 14 9
2 1 3 3 2 3 3 2 2 3 5 5 3 4 7 10 10 5 1 2 3 3 5 6 4 3 3 3 1 3 4 4 5 4 2 4 6 4 4 6 5 4 5 4 3 2 3 7 11 15 19 19 19 20 20 20 20 19 20 21 21 21 23 24 24 23 21 22 22 20 23 24 18 17 20 20 20 20 19 18 18 20 22 23 24 22 16 12
1 1 2 3 2 4 3 1 1 3 3 4 4 5 5 5 5 2 0 3 3 2 2 3 4 4 3 2 0 2 1 2 0 3 3 6 7 3 2 4 4 7 8 6 4 3 4 7 10 13 14 14 16 19 20 20 21 22 24 23 22 23 25 25 23 21 21 24 26 26 26 22 17 19 22 21 20 19 18 19 19 20 23 23 20 16 14 14
4 4 3 3 4 4 2 1 1 2 3 4 4 3 2 3 2 2 3 4 3 1 2 4 6 4 1 2 2 1 1 2 2 5 4 5 6 4 4 4 6 9 9 6 3 3 3 4 6 9 9 9 12 16 20 21 22 24 24 24 25 25 23 22 21 21 22 24 26 25 21 16 15 17 19 19 19 19 19 21 20 17 15 13 12 13 13 14
4 5 3 2 3 4 2 2 1 3 4 4 2 2 2 2 1 2 3 2 1 3 5 6 6 5 4 5 4 0 1 3 6 7 6 8 8 7 7 8 9 8 7 6 5 3 4 4 4 6 8 7 8 11 15 15 15 15 16 21 27 27 24 22 21 22 23 22 20 18 13 9 9 9 9 11 13 13 14 14 10 9 11 12 11 12 12 12
Wind_Direction
1 1 359 359 358 360 1 2 3 3 4 3 4 5 5 6 5 5 2 1 2 1 358 354 352 349 341 337 331 317 302 280 273 265 248 259 262 248 241 230 214 201 201 201 183 172 150 167 199 180 145 116 266 249 219 156 103 63 103 160 241 204 212 196 197 207 177 270 265 264 227 187 251 276 235 329 311 270 257 262 261 275 352 28 310 146 150 159
355 353 353 353 352 353 354 355 356 355 356 355 356 356 356 357 355 356 354 353 353 353 355 351 348 345 340 339 336 331 315 294 283 269 266 274 266 245 229 220 214 200 193 192 194 179 148 179 192 142 97 114 264 288 183 232 140 136 136 177 231 206 217 202 203 223 192 260 256 259 245 189 221 236 121 248 262 266 240 261 277 267 273 14 86 137 150 158
351 350 349 349 349 350 350 351 349 347 348 348 349 349 350 350 348 347 346 346 344 346 347 346 345 341 339 335 337 338 315 307 296 272 286 306 266 243 230 222 219 211 206 202 204 189 164 169 170 140 94 255 249 122 111 266 197 182 147 211 243 217 235 248 235 241 232 235 246 267 250 188 234 225 135 226 261 262 226 234 221 239 245 215 143 148 155 161
348 347 346 347 349 348 348 347 344 342 343 342 344 344 344 344 345 343 341 340 338 339 340 342 341 339 337 333 340 334 324 341 291 272 341 12 339 240 222 221 219 216 217 210 201 191 177 156 156 142 111 242 287 67 163 228 209 183 164 211 240 201 235 258 243 241 235 217 215 241 256 254 252 196 190 196 267 270 235 223 207 219 231 198 169 172 167 168
346 344 343 344 346 346 346 343 341 340 338 339 340 340 341 340 340 339 338 336 334 334 335 338 336 338 333 328 342 331 356 23 285 290 5 3 2 245 207 213 214 213 209 204 198 185 185 158 126 103 107 215 281 72 224 225 164 167 217 224 239 189 231 258 244 236 222 214 242 248 264 261 244 182 213 190 229 259 234 211 212 219 225 188 175 181 174 177
341 340 341 340 343 344 342 340 338 336 335 336 336 338 339 337 336 334 333 332 331 330 330 333 333 335 328 322 344 345 36 328 270 282 313 333 338 248 197 206 209 207 203 202 200 183 177 133 113 143 145 214 205 193 241 231 154 222 252 239 243 220 237 260 256 239 203 227 256 251 258 256 291 272 232 199 229 249 236 190 201 222 224 185 169 172 177 188
335 335 335 336 340 339 338 336 334 334 333 333 333 334 335 334 333 329 327 326 325 324 326 330 330 331 324 322 343 31 83 255 277 292 297 308 294 236 196 205 205 205 203 199 197 180 151 117 162 178 138 259 222 209 242 239 168 219 256 259 247 226 233 252 262 269 249 243 249 273 314 266 251 270 285 238 243 248 246 211 201 226 216 169 161 175 187 193
329 330 330 332 335 335 333 331 330 330 328 329 329 330 330 330 328 325 324 320 319 319 320 324 326 329 318 293 44 13 20 255 279 297 294 288 260 228 201 204 205 208 204 206 205 183 153 147 188 174 146 250 206 203 246 300 190 217 238 256 257 236 239 254 265 268 264 253 251 300 286 253 234 266 309 266 260 256 242 234 226 214 172 162 177 189 193 198
327 326 327 330 334 334 331 328 327 325 324 325 323 323 324 323 321 321 319 315 316 312 312 318 318 319 297 190 91 7 271 252 278 293 287 266 245 225 209 208 207 209 206 216 211 184 175 185 210 196 198 232 190 213 236 218 245 219 224 254 271 275 274 276 272 257 251 250 200 239 270 263 237 262 284 265 265 263 227 231 230 192 185 192 194 196 196 203
328 328 328 332 336 336 333 331 328 326 325 322 320 319 317 316 314 312 310 309 311 305 304 307 303 301 250 172 101 274 268 270 279 281 276 253 237 223 215 214 211 211 209 213 202 185 183 192 196 168 179 214 195 223 194 185 228 210 220 267 261 275 287 269 264 263 255 252 195 208 264 273 252 188 266 267 265 209 202 233 233 203 219 217 206 207 202 206
335 335 335 338 342 339 337 335 332 330 327 324 322 319 314 313 309 304 301 298 299 296 292 290 289 273 214 165 153 232 271 287 280 279 271 249 235 229 225 221 217 215 212 208 206 204 207 204 160 112 193 235 218 258 235 204 227 227 253 305 279 290 297 265 258 265 246 263 208 190 259 282 288 181 245 260 260 110 198 241 243 224 235 229 217 217 207 213
336 336 338 343 344 342 341 337 335 332 328 326 322 319 317 313 310 303 296 289 288 286 276 273 270 242 204 171 212 240 262 271 274 277 265 249 238 236 232 227 226 225 221 218 221 217 223 222 160 151 225 225 289 291 246 219 30 285 38 322 290 327 307 275 266 247 193 231 190 150 270 285 239 220 238 252 258 18 263 261 255 239 241 239 229 223 214 222
331 333 336 339 341 343 343 338 336 332 328 324 318 317 315 311 310 303 296 287 284 280 266 260 251 219 189 242 240 246 259 261 263 265 257 247 239 235 229 226 230 231 232 231 232 221 220 215 181 187 216 168 255 262 213 2 14 293 29 300 288 337 300 275 271 193 200 207 167 134 264 272 251 243 243 253 259 254 268 266 259 250 247 242 235 230 227 226
326 329 333 335 339 344 343 341 337 334 330 323 317 314 309 307 304 297 293 286 285 279 260 243 216 186 172 253 259 258 260 255 251 251 249 241 231 230 227 224 226 228 236 243 248 280 339 184 162 172 237 183 247 297 338 353 354 295 303 239 287 308 274 282 68 129 216 223 164 145 229 255 264 263 252 251 241 212 244 259 257 254 252 248 240 235 237 231
324 327 332 335 340 345 345 343 340 337 332 324 318 314 306 301 294 290 287 283 286 270 237 201 178 156 114 273 266 260 254 246 248 249 247 238 224 223 229 222 223 228 234 241 242 246 201 153 126 161 261 256 266 315 329 337 344 348 247 268 282 205 263 298 296 175 209 250 153 155 227 251 261 267 263 248 212 194 228 252 255 256 255 252 247 238 243 243
323 327 331 335 341 346 347 344 342 338 332 325 321 315 307 298 289 285 281 279 280 238 188 173 180 159 15 275 263 255 238 232 249 252 242 233 225 220 218 209 207 199 195 203 178 160 158 141 120 169 230 275 211 124 39 351 317 326 207 242 257 230 262 307 296 222 201 211 171 202 228 252 256 263 271 267 213 201 225 251 253 254 256 252 251 243 245 251
322 325 329 336 340 344 345 344 343 339 334 331 328 319 310 299 288 284 277 270 251 181 156 156 173 161 275 261 271 263 234 232 245 247 230 223 219 213 194 167 153 146 136 121 139 139 125 123 147 170 333 278 164 105 64 291 269 284 226 230 247 245 243 280 292 284 186 173 211 229 229 242 252 259 275 275 214 191 219 250 253 251 256 255 253 251 248 247
320 323 329 335 339 343 344 344 344 342 339 339 337 325 313 305 293 289 172 136 105 118 134 110 138 152 266 236 239 249 228 229 232 224 213 205 203 204 184 145 128 125 109 66 109 126 53 32 88 12 307 261 155 122 175 231 236 238 231 237 264 253 238 250 270 278 164 211 221 233 238 244 256 263 271 270 250 231 238 246 255 258 260 259 256 252 249 247
320 326 331 335 340 343 343 345 346 345 342 344 345 333 324 37 65 89 125 131 110 113 181 214 164 163 253 234 237 245 223 200 199 200 189 180 185 186 164 133 119 117 113 98 260 191 134 57 63 148 246 237 202 172 206 228 232 234 236 240 259 260 247 246 258 251 209 248 236 234 247 246 255 259 260 265 263 262 262 259 259 258 261 261 257 253 251 249
321 326 330 335 338 341 342 346 346 345 347 348 349 347 25 56 42 54 54 197 218 221 225 203 196 218 276 260 227 217 219 194 191 190 175 173 166 155 151 97 89 93 136 157 212 232 140 132 167 210 225 227 208 198 217 234 246 259 262 257 256 262 266 254 264 267 205 224 240 233 249 251 251 256 255 259 264 263 264 265 261 251 251 255 253 255 253 247
318 321 328 333 335 339 342 345 346 348 350 354 359 13 96 72 321 291 320 286 261 262 273 240 218 241 262 255 220 195 196 208 210 179 175 177 152 147 192 123 121 205 188 156 165 227 140 164 211 224 225 225 214 209 225 241 254 260 253 263 266 257 265 258 263 275 228 198 251 242 256 259 250 255 257 259 261 259 257 257 261 254 246 250 252 253 253 250
309 313 323 328 332 338 340 344 348 350 352 5 32 62 122 191 250 216 282 288 282 265 253 254 239 253 260 256 249 222 198 245 241 198 178 172 155 173 199 143 170 203 162 142 132 195 172 204 228 229 226 239 247 217 222 235 235 243 242 262 271 256 271 268 253 270 254 175 259 254 256 261 254 254 256 257 255 255 255 251 256 257 249 250 248 250 254 254
296 301 314 318 327 332 336 342 346 351 354 12 52 66 82 352 122 140 119 230 292 270 230 241 228 231 247 254 250 220 226 238 235 230 182 166 166 194 164 164 187 157 147 188 201 197 198 227 235 231 213 230 252 241 229 254 236 218 226 248 262 253 266 269 242 269 277 195 262 268 264 263 260 259 252 251 254 256 260 255 256 257 249 249 249 249 254 254
288 293 301 304 318 324 332 339 338 350 353 8 58 29 21 7 154 152 99 218 284 276 242 223 205 210 228 245 232 197 222 225 216 232 177 162 150 156 171 173 159 152 199 211 210 215 230 236 227 209 194 208 237 246 235 262 253 214 211 226 249 250 249 257 269 305 310 272 278 288 285 270 231 243 248 244 251 254 256 256 257 256 247 249 256 254 251 252
283 286 291 297 308 318 329 331 326 346 346 333 35 1 12 13 172 169 356 338 287 287 277 226 199 230 229 215 172 178 213 227 219 203 169 170 163 142 198 179 151 207 217 217 219 234 247 239 170 171 202 205 218 237 221 230 251 242 213 221 238 246 250 260 282 319 323 294 311 355 306 288 195 211 238 239 245 249 250 250 252 254 249 245 253 257 252 249
278 278 283 287 296 315 327 325 317 339 341 234 317 344 351 352 192 186 141 23 286 267 287 219 182 217 219 179 157 145 76 266 243 153 164 182 180 148 169 185 201 228 209 211 225 234 244 227 185 187 203 196 200 238 226 210 241 271 228 219 233 241 250 256 270 299 270 259 289 96 295 287 259 204 222 227 234 244 248 249 249 251 251 241 241 253 257 254
274 274 277 278 284 303 313 296 310 331 336 274 328 340 335 333 237 217 317 14 290 227 158 233 191 132 186 187 164 138 169 265 14 80 143 177 197 162 182 202 217 235 174 143 270 235 211 210 201 198 195 180 189 238 228 187 208 263 221 190 207 222 233 226 219 233 235 276 299 168 151 274 283 242 198 210 218 237 248 250 252 251 249 245 239 245 252 256
268 268 268 269 274 280 279 280 298 313 292 317 337 337 336 332 227 189 49 311 277 214 129 250 249 56 5 318 229 140 194 289 73 338 345 59 185 140 223 221 196 217 169 146 241 243 172 197 204 188 181 188 206 227 201 154 192 251 173 148 161 186 203 167 169 221 286 344 300 228 144 263 283 270 168 198 206 224 241 241 247 251 250 250 244 242 246 254
269 269 265 263 265 265 264 268 274 288 300 327 343 322 327 300 220 77 82 249 272 316 64 322 193 309 5 54 249 101 24 4 91 274 343 55 8 80 205 226 169 229 250 190 236 257 187 215 193 168 176 213 221 226 168 158 203 232 113 97 70 71 72 84 102 85 14 311 257 211 163 227 282 294 110 148 192 216 235 235 245 254 257 259 255 251 248 250
264 267 268 259 245 243 247 252 257 270 295 316 329 314 301 240 116 73 237 241 284 257 208 47 203 243 82 122 277 314 324 312 37 352 13 79 344 26 178 218 116 215 279 281 263 256 239 294 154 172 190 203 194 143 147 169 185 131 97 60 33 21 25 51 34 64 24 281 242 194 186 189 267 293 127 168 206 210 219 231 252 256 257 259 257 256 251 246
260 261 264 253 235 233 228 232 252 252 244 280 331 329 306 309 97 175 239 237 53 261 182 156 240 90 105 144 261 297 219 288 40 121 112 143 12 23 41 287 66 57 319 301 283 271 256 235 209 222 186 137 110 101 22 36 108 115 105 76 27 335 7 27 354 52 187 265 238 192 188 187 233 260 187 230 251 212 199 215 239 246 250 254 255 257 253 251
261 257 258 253 242 236 229 228 242 223 214 219 11 359 11 289 225 212 240 343 329 247 171 189 210 131 142 140 245 243 178 272 225 158 171 163 156 168 193 203 163 11 302 259 275 307 275 224 210 230 193 147 130 131 348 359 66 108 116 119 86 300 339 354 314 44 216 259 245 186 182 213 243 250 234 256 266 239 211 211 222 233 243 248 253 257 256 265
266 258 253 255 247 236 236 242 238 212 204 157 73 30 98 206 241 215 207 241 232 217 144 146 130 143 140 119 248 228 158 231 210 172 181 146 163 229 241 213 164 189 257 228 299 327 290 265 182 142 272 186 153 171 230 270 176 157 154 154 167 212 231 249 262 267 256 265 264 176 168 252 277 271 229 239 255 255 233 222 224 231 240 246 255 265 274 286
276 263 251 252 250 243 242 243 234 216 195 136 97 50 112 229 256 66 169 232 255 334 57 103 89 120 143 183 237 199 179 243 182 155 186 132 152 246 249 224 193 187 214 216 293 212 257 286 192 162 230 184 175 203 203 163 166 187 164 147 178 188 183 207 226 247 259 274 295 201 175 235 274 276 225 229 258 282 263 248 256 265 264 265 277 284 284 280
283 271 256 248 244 243 241 237 231 212 183 131 100 124 208 234 265 36 214 234 278 322 310 313 99 118 260 269 259 211 213 244 152 135 179 164 182 213 203 206 198 181 159 204 242 170 223 269 231 186 185 164 183 213 191 125 141 228 125 120 218 201 181 223 243 236 244 286 281 231 212 237 254 271 259 248 263 274 276 274 269 265 260 258 266 270 270 269
285 281 262 240 234 237 233 229 222 203 176 124 105 191 222 231 205 192 220 242 220 186 327 320 72 172 262 271 273 259 221 232 166 144 201 204 214 214 211 218 194 184 181 193 218 206 237 271 252 209 245 178 189 214 177 156 201 192 125 187 223 161 161 224 269 277 160 257 258 250 254 271 302 286 269 232 251 261 272 267 249 253 265 267 267 268 272 277
293 281 253 232 234 236 231 223 209 192 171 132 185 214 224 226 198 196 215 311 250 111 64 312 247 206 242 258 276 275 260 255 209 175 214 226 237 205 201 240 201 189 199 207 220 234 243 269 256 197 226 269 332 5 351 303 154 131 177 215 172 67 132 174 246 308 243 246 253 258 263 271 281 278 310 32 323 290 284 281 282 300 305 299 289 287 288 288
300 273 252 247 244 236 228 215 193 173 142 152 223 232 218 208 212 199 182 164 303 52 72 234 244 232 219 239 266 243 219 251 157 166 226 229 233 179 169 236 215 196 215 223 239 252 228 255 269 202 190 314 4 15 317 322 41 138 216 236 103 161 241 165 181 215 227 243 246 242 258 267 249 248 278 308 290 284 287 308 335 316 300 291 287 289 292 294
295 271 263 255 244 232 215 197 178 160 147 190 226 237 207 198 223 203 177 165 132 71 236 228 226 248 239 229 251 277 266 256 199 207 235 223 239 186 148 246 251 223 231 211 223 274 226 240 266 340 79 319 26 113 209 260 308 32 290 319 69 189 204 182 190 182 218 243 250 237 245 259 252 236 230 243 241 233 265 324 329 305 305 299 284 281 286 289
262 256 270 247 226 212 193 177 163 167 203 204 225 231 207 210 230 210 193 193 190 192 223 220 205 225 243 242 248 252 244 243 239 233 219 216 249 274 245 210 146 280 267 163 199 264 8 256 256 309 352 263 206 198 191 198 218 200 235 252 248 230 217 245 237 176 222 246 250 249 243 247 260 229 199 218 214 202 235 322 307 298 301 294 285 277 273 277
221 246 255 226 198 183 168 157 162 200 209 228 235 231 235 245 238 229 211 203 210 215 195 195 205 224 245 255 249 225 204 220 217 217 221 221 237 254 236 176 159 214 3 96 194 223 168 245 256 289 272 247 245 220 185 192 206 195 207 223 227 230 241 265 254 219 216 247 250 259 256 252 301 299 262 243 235 244 267 287 281 279 276 271 269 261 257 261
231 235 207 191 182 167 153 158 213 192 213 233 233 227 230 240 237 234 223 206 211 225 226 208 216 226 239 246 247 233 226 221 206 213 224 217 216 220 215 183 154 134 106 148 221 221 167 161 240 251 241 246 268 270 211 202 216 218 222 222 231 232 222 239 249 236 232 261 274 276 267 257 299 289 283 283 280 280 278 264 269 274 262 254 253 255 255 254
229 236 188 187 181 167 154 235 208 203 231 232 266 247 205 223 241 231 216 204 202 207 222 219 215 221 227 229 235 235 234 227 216 221 234 232 222 220 218 200 150 115 108 210 241 235 128 116 213 249 261 262 273 284 273 208 175 231 241 216 220 230 225 234 245 242 242 251 260 265 259 242 222 262 277 285 286 286 280 266 267 271 266 260 258 258 259 257
258 266 289 194 186 177 174 231 211 223 229 231 259 244 232 240 233 236 230 206 186 196 219 223 215 221 224 219 223 227 225 226 226 225 229 233 223 217 218 212 195 175 176 202 206 209 216 189 198 234 263 267 261 278 277 231 191 225 227 210 223 229 237 253 262 238 244 238 236 250 255 241 235 256 273 282 284 285 283 279 273 271 272 268 259 255 259 261
301 258 266 200 192 192 219 228 224 232 222 231 241 237 249 248 219 231 239 227 203 199 228 249 238 232 225 220 232 234 222 225 238 232 221 226 246 231 218 218 219 217 215 210 188 173 220 205 184 219 242 250 252 249 244 223 217 226 198 205 222 221 225 241 250 243 246 238 231 242 254 249 245 254 262 267 272 279 285 285 281 276 270 266 262 258 258 257
299 251 247 204 199 219 255 242 235 232 222 231 234 228 236 241 237 219 217 228 230 223 241 262 261 272 245 225 241 246 234 233 240 240 231 234 255 266 224 219 224 228 231 225 193 147 213 208 206 228 237 244 253 254 247 232 226 233 226 221 225 225 226 233 242 244 248 252 245 240 249 256 250 247 253 259 264 271 276 280 283 286 279 270 267 259 251 250
261 260 240 218 210 225 236 244 235 223 227 230 220 217 228 235 249 229 198 218 226 220 237 249 237 240 235 230 242 245 242 243 241 244 252 250 255 292 285 252 242 249 249 237 194 156 231 232 224 234 241 244 251 256 257 253 247 244 242 238 237 237 235 236 244 246 246 255 254 237 236 247 245 241 251 260 264 265 267 272 280 285 283 280 275 262 252 253
247 274 281 285 273 228 228 248 254 252 268 258 229 237 240 235 235 228 221 261 240 208 219 237 229 232 240 250 255 254 251 249 250 251 257 279 324 327 318 306 288 287 287 259 196 169 216 243 237 240 246 246 247 251 252 253 255 252 247 247 246 245 243 242 245 246 241 247 256 247 239 247 251 249 250 255 259 261 265 269 275 280 283 285 282 276 275 277
283 280 289 306 282 261 277 323 342 321 292 283 271 253 254 252 246 234 209 308 295 232 228 244 240 241 291 330 336 303 290 261 266 290 357 8 345 328 316 311 317 358 10 339 286 239 235 245 242 245 250 248 245 247 247 248 254 255 250 247 246 245 246 245 247 249 246 250 259 262 258 260 263 261 256 254 257 261 266 270 275 279 281 283 285 290 304 318
290 273 301 338 287 270 293 276 282 316 297 274 258 237 238 254 262 285 101 217 252 301 266 296 360 26 24 32 92 282 320 103 185 300 349 345 330 331 325 309 321 340 340 322 295 285 264 251 249 254 256 249 245 247 246 244 247 250 249 248 247 247 247 247 250 253 253 256 258 259 261 262 259 259 259 257 258 262 266 270 271 273 278 286 300 321 347 356
270 295 302 306 282 274 281 237 253 291 266 234 231 245 246 236 252 338 317 250 237 237 96 50 2 349 330 302 295 257 129 103 241 247 250 276 283 282 277 276 296 313 312 297 278 287 286 276 274 275 270 257 248 248 249 249 247 247 248 247 246 245 243 243 244 244 246 253 256 255 258 260 260 262 263 264 267 267 268 272 276 283 300 323 346 5 14 10
273 297 286 251 272 272 275 304 277 240 251 249 255 320 302 257 358 17 312 283 152 124 92 55 353 330 320 305 304 300 229 262 256 249 236 232 236 237 239 243 249 259 274 283 282 261 251 266 277 272 270 268 258 256 261 261 253 247 245 243 244 245 246 247 247 245 244 247 252 255 259 280 312 328 329 320 313 304 296 297 307 334 359 11 13 9 4 359